Weather History for KLWD - November, 2012

Change the Weather History Date:

Wednesday, November 21, 2012

  Actual Average Record
Temperature  
Mean Temperature 55 °F 37 °F  
Max Temperature 70 °F 46 °F 71 °F (1990)
Min Temperature 39 °F 28 °F 4 °F (1964)
Degree Days  
Heating Degree Days 10 28  
Month to date heating degree days 383 486  
Since 1 July heating degree days 918 970  
Cooling Degree Days 0 0  
Month to date cooling degree days 1 0  
Year to date cooling degree days 1312 946  
Growing Degree Days 4 (Base 50)    
Moisture  
Dew Point 38 °F    
Average Humidity 59    
Maximum Humidity 86    
Minimum Humidity 31    
Precipitation  
Precipitation 0.00 in 0.05 in 0.21 in (2013)
Month to date precipitation 1.65 1.71  
Sea Level Pressure  
Sea Level Pressure 30.09 in    
Wind  
Wind Speed 12 mph (SSW)    
Max Wind Speed 23 mph    
Max Gust Speed 29 mph    
Visibility 9 miles    
Events      
T = Trace of Precipitation, MM = Missing Value Source: NWS Daily Summary

Daily Weather History Graph

Daily Weather History Graph

Search for Another Location

Airport or City:

Trip Planner

Search our weather history database for the weather conditions in past years. The results will help you decide how hot, cold, wet, or windy it might be!

Date:

Astronomy

Nov. 21, 2012 Rise Set
Actual Time 7:09 AM CST 4:53 PM CST
Civil Twilight 6:39 AM CST 5:22 PM CST
Nautical Twilight 6:06 AM CST 5:56 PM CST
Astronomical Twilight 5:33 AM CST 6:28 PM CST
Moon 1:11 PM CST (11/21) 12:27 AM CST (11/21)
Length of Visible Light 10h 42m
Length of Day
9h 43m
First Quarter, 62% of the Moon is Illuminated
Nov 21
First Quarter
Nov 28
Full
Dec 6
Last Quarter
Dec 13
New
Dec 19
First Quarter

Hourly Weather History & Observations

Time (CST) Temp. Windchill Dew Point Humidity Pressure Visibility Wind Dir Wind Speed Gust Speed Precip Events Conditions
12:53 AM 42.1 °F 37.1 °F 37.0 °F 82% 30.19 in 9.0 mi SSW 8.1 mph - N/A   Clear
1:53 AM 42.1 °F 36.6 °F 37.0 °F 82% 30.18 in 9.0 mi SSW 9.2 mph - N/A   Clear
2:53 AM 42.1 °F 36.1 °F 37.0 °F 82% 30.17 in 8.0 mi South 10.4 mph - N/A   Clear
3:53 AM 41.0 °F 35.8 °F 37.0 °F 86% 30.17 in 7.0 mi SSW 8.1 mph - N/A   Clear
4:53 AM 42.1 °F 36.6 °F 37.9 °F 85% 30.18 in 6.0 mi SSW 9.2 mph - N/A   Clear
5:53 AM 42.1 °F 36.6 °F 37.0 °F 82% 30.18 in 6.0 mi South 9.2 mph - N/A   Haze
6:53 AM 39.9 °F 33.4 °F 36.0 °F 86% 30.18 in 5.0 mi South 10.4 mph - N/A   Clear
7:53 AM 41.0 °F 35.2 °F 37.0 °F 86% 30.19 in 4.0 mi SSW 9.2 mph - N/A   Clear
8:53 AM 45.0 °F 40.1 °F 39.9 °F 82% 30.18 in 6.0 mi South 9.2 mph - N/A   Haze
9:53 AM 53.1 °F - 43.0 °F 69% 30.18 in 10.0 mi SSW 11.5 mph - N/A   Clear
10:53 AM 57.9 °F - 43.0 °F 58% 30.16 in 10.0 mi SSW 12.7 mph - N/A   Clear
11:53 AM 64.9 °F - 41.0 °F 42% 30.13 in 10.0 mi SSW 13.8 mph - N/A   Clear
12:53 PM 68.0 °F - 39.0 °F 35% 30.09 in 10.0 mi SSW 17.3 mph - N/A   Clear
1:53 PM 69.1 °F - 37.9 °F 32% 30.06 in 10.0 mi SSW 17.3 mph 23.0 mph N/A   Clear
2:53 PM 69.1 °F - 37.9 °F 32% 30.04 in 10.0 mi SSW 16.1 mph 25.3 mph N/A   Clear
3:53 PM 66.9 °F - 37.9 °F 34% 30.02 in 10.0 mi South 12.7 mph - N/A   Clear
4:53 PM 63.0 °F - 37.0 °F 38% 30.01 in 10.0 mi South 11.5 mph - N/A   Clear
5:53 PM 59.0 °F - 37.0 °F 44% 30.00 in 10.0 mi South 8.1 mph - N/A   Clear
6:53 PM 57.0 °F - 37.9 °F 49% 30.00 in 10.0 mi South 11.5 mph - N/A   Clear
7:53 PM 57.0 °F - 39.0 °F 51% 30.00 in 10.0 mi South 12.7 mph - N/A   Clear
8:53 PM 55.0 °F - 39.0 °F 55% 30.00 in 10.0 mi South 13.8 mph - N/A   Clear
9:53 PM 54.0 °F - 39.0 °F 57% 29.98 in 10.0 mi South 12.7 mph - N/A   Clear
10:53 PM 53.1 °F - 39.0 °F 59% 29.96 in 10.0 mi South 10.4 mph 19.6 mph N/A   Clear
11:53 PM 52.0 °F - 39.0 °F 61% 29.94 in 10.0 mi South 12.7 mph - N/A   Clear